Time,TemperatureF,DewpointF,PressureIn,WindDirection,WindDirectionDegrees,WindSpeedMPH,WindSpeedGustMPH,Humidity,HourlyPrecipIn,Conditions,Clouds,dailyrainin,SoftwareType,DateUTC
2013-08-27 00:06:00,72.1,70.0,30.06,SSE,155,0.0,0.0,94,0.00,,,0.00,weatherlink.com 1.10,2013-08-27 05:06:00,
2013-08-27 00:20:00,72.1,70.0,30.06,SSE,155,0.0,0.0,94,0.00,,,0.00,weatherlink.com 1.10,2013-08-27 05:20:00,
2013-08-27 00:35:00,72.1,71.0,30.05,SSE,155,0.0,0.0,95,0.00,,,0.00,weatherlink.com 1.10,2013-08-27 05:35:00,
2013-08-27 00:50:00,72.1,71.0,30.05,SSE,155,0.0,0.0,95,0.00,,,0.00,weatherlink.com 1.10,2013-08-27 05:50:00,
2013-08-27 01:05:00,72.1,71.0,30.05,SSE,155,0.0,0.0,95,0.00,,,0.00,weatherlink.com 1.10,2013-08-27 06:05:00,
2013-08-27 01:20:00,72.0,71.0,30.06,SSE,155,0.0,1.0,95,0.00,,,0.00,weatherlink.com 1.10,2013-08-27 06:20:00,
2013-08-27 01:36:00,71.9,71.0,30.05,SSE,155,0.0,0.0,95,0.00,,,0.00,weatherlink.com 1.10,2013-08-27 06:36:00,
2013-08-27 01:51:00,71.8,70.0,30.05,SSE,155,0.0,0.0,95,0.00,,,0.00,weatherlink.com 1.10,2013-08-27 06:51:00,
2013-08-27 02:06:00,71.7,70.0,30.04,SSE,155,0.0,1.0,95,0.00,,,0.00,weatherlink.com 1.10,2013-08-27 07:06:00,
2013-08-27 02:21:00,71.7,70.0,30.05,SSE,155,0.0,1.0,95,0.00,,,0.00,weatherlink.com 1.10,2013-08-27 07:21:00,
2013-08-27 02:36:00,71.6,70.0,30.05,SSE,155,0.0,0.0,95,0.00,,,0.00,weatherlink.com 1.10,2013-08-27 07:36:00,
2013-08-27 02:51:00,71.6,70.0,30.05,SSE,155,0.0,0.0,95,0.00,,,0.00,weatherlink.com 1.10,2013-08-27 07:51:00,
2013-08-27 03:06:00,71.5,70.0,30.05,SSE,155,0.0,0.0,95,0.00,,,0.00,weatherlink.com 1.10,2013-08-27 08:06:00,
2013-08-27 03:21:00,71.6,70.0,30.06,SSE,155,0.0,0.0,96,0.00,,,0.00,weatherlink.com 1.10,2013-08-27 08:21:00,
2013-08-27 03:36:00,71.6,70.0,30.06,SSE,155,0.0,0.0,96,0.00,,,0.00,weatherlink.com 1.10,2013-08-27 08:36:00,
2013-08-27 03:51:00,71.6,70.0,30.06,SSE,155,0.0,1.0,96,0.00,,,0.00,weatherlink.com 1.10,2013-08-27 08:51:00,
2013-08-27 04:06:00,71.6,70.0,30.06,SSE,155,0.0,0.0,96,0.00,,,0.00,weatherlink.com 1.10,2013-08-27 09:06:00,
2013-08-27 04:21:00,71.5,70.0,30.07,SSE,155,0.0,0.0,96,0.00,,,0.00,weatherlink.com 1.10,2013-08-27 09:21:00,
2013-08-27 04:36:00,71.5,70.0,30.07,SSE,155,0.0,1.0,95,0.00,,,0.00,weatherlink.com 1.10,2013-08-27 09:36:00,
2013-08-27 04:51:00,71.4,70.0,30.07,SSE,155,0.0,0.0,95,0.00,,,0.00,weatherlink.com 1.10,2013-08-27 09:51:00,
2013-08-27 05:06:00,71.3,70.0,30.07,SSE,155,0.0,0.0,95,0.00,,,0.00,weatherlink.com 1.10,2013-08-27 10:06:00,
2013-08-27 05:21:00,71.2,70.0,30.07,SSE,155,0.0,0.0,96,0.00,,,0.00,weatherlink.com 1.10,2013-08-27 10:21:00,
2013-08-27 05:36:00,71.0,70.0,30.07,SSE,155,0.0,0.0,96,0.00,,,0.00,weatherlink.com 1.10,2013-08-27 10:36:00,
2013-08-27 05:51:00,70.9,70.0,30.07,SSE,155,0.0,0.0,96,0.00,,,0.00,weatherlink.com 1.10,2013-08-27 10:51:00,
2013-08-27 06:06:00,70.7,69.0,30.07,SSE,155,0.0,0.0,95,0.00,,,0.00,weatherlink.com 1.10,2013-08-27 11:06:00,
2013-08-27 06:21:00,70.5,69.0,30.08,SSE,155,0.0,0.0,95,0.00,,,0.00,weatherlink.com 1.10,2013-08-27 11:21:00,
2013-08-27 06:36:00,70.4,69.0,30.09,SSE,155,0.0,0.0,96,0.00,,,0.00,weatherlink.com 1.10,2013-08-27 11:36:00,
2013-08-27 06:51:00,70.2,69.0,30.08,SSE,155,0.0,0.0,96,0.00,,,0.00,weatherlink.com 1.10,2013-08-27 11:51:00,
2013-08-27 07:06:00,70.1,69.0,30.09,SSE,155,0.0,0.0,96,0.00,,,0.00,weatherlink.com 1.10,2013-08-27 12:06:00,
2013-08-27 07:21:00,70.2,69.0,30.09,SSE,155,0.0,1.0,96,0.00,,,0.00,weatherlink.com 1.10,2013-08-27 12:21:00,
2013-08-27 07:36:00,70.5,69.0,30.09,SSE,155,0.0,0.0,96,0.00,,,0.00,weatherlink.com 1.10,2013-08-27 12:36:00,
2013-08-27 07:51:00,71.0,70.0,30.09,SSE,155,0.0,0.0,96,0.00,,,0.00,weatherlink.com 1.10,2013-08-27 12:51:00,
2013-08-27 08:06:00,72.1,71.0,30.09,SSE,155,0.0,0.0,97,0.00,,,0.00,weatherlink.com 1.10,2013-08-27 13:06:00,
2013-08-27 08:21:00,73.0,72.0,30.10,SSE,155,0.0,1.0,97,0.00,,,0.00,weatherlink.com 1.10,2013-08-27 13:21:00,
2013-08-27 08:36:00,73.9,73.0,30.10,SSE,155,0.0,0.0,97,0.00,,,0.00,weatherlink.com 1.10,2013-08-27 13:36:00,
2013-08-27 08:51:00,75.1,74.0,30.10,SSE,155,0.0,0.0,97,0.00,,,0.00,weatherlink.com 1.10,2013-08-27 13:51:00,
2013-08-27 09:06:00,76.0,75.0,30.10,SSE,154,0.0,0.0,97,0.00,,,0.00,weatherlink.com 1.10,2013-08-27 14:06:00,
2013-08-27 09:21:00,77.0,76.0,30.10,NNE,31,0.0,3.0,95,0.00,,,0.00,weatherlink.com 1.10,2013-08-27 14:21:00,
2013-08-27 09:36:00,78.2,75.0,30.10,ESE,111,0.0,3.0,90,0.00,,,0.00,weatherlink.com 1.10,2013-08-27 14:36:00,
2013-08-27 09:51:00,79.8,75.0,30.10,SSE,149,2.0,3.0,84,0.00,,,0.00,weatherlink.com 1.10,2013-08-27 14:51:00,
2013-08-27 10:06:00,81.4,74.0,30.10,South,175,3.0,5.0,79,0.01,,,0.01,weatherlink.com 1.10,2013-08-27 15:06:00,
2013-08-27 10:21:00,82.2,74.0,30.10,South,171,2.0,3.0,75,0.01,,,0.01,weatherlink.com 1.10,2013-08-27 15:21:00,
2013-08-27 10:37:00,83.8,73.0,30.10,SSW,195,3.0,7.0,70,0.01,,,0.01,weatherlink.com 1.10,2013-08-27 15:37:00,
2013-08-27 10:52:00,84.9,72.0,30.11,SSW,208,0.0,6.0,66,0.01,,,0.01,weatherlink.com 1.10,2013-08-27 15:52:00,
2013-08-27 11:07:00,85.6,74.0,30.11,South,179,1.0,4.0,68,0.00,,,0.01,weatherlink.com 1.10,2013-08-27 16:07:00,
2013-08-27 11:22:00,85.7,74.0,30.10,SSE,166,3.0,6.0,68,0.00,,,0.01,weatherlink.com 1.10,2013-08-27 16:22:00,
2013-08-27 11:37:00,85.5,74.0,30.10,SSE,165,1.0,5.0,69,0.00,,,0.01,weatherlink.com 1.10,2013-08-27 16:37:00,
2013-08-27 11:52:00,86.4,73.0,30.09,North,10,2.0,7.0,65,0.00,,,0.01,weatherlink.com 1.10,2013-08-27 16:52:00,
2013-08-27 12:07:00,87.8,73.0,30.09,South,180,1.0,7.0,62,0.00,,,0.01,weatherlink.com 1.10,2013-08-27 17:07:00,
2013-08-27 12:22:00,88.1,72.0,30.08,SSW,202,1.0,7.0,60,0.00,,,0.01,weatherlink.com 1.10,2013-08-27 17:22:00,
2013-08-27 12:37:00,87.2,74.0,30.08,WNW,300,1.0,7.0,64,0.00,,,0.01,weatherlink.com 1.10,2013-08-27 17:37:00,
2013-08-27 12:52:00,86.6,72.0,30.07,NNW,336,0.0,2.0,62,0.00,,,0.01,weatherlink.com 1.10,2013-08-27 17:52:00,
2013-08-27 13:07:00,89.2,72.0,30.07,NW,323,1.0,4.0,57,0.00,,,0.01,weatherlink.com 1.10,2013-08-27 18:07:00,
2013-08-27 13:22:00,88.6,72.0,30.07,SW,217,1.0,4.0,59,0.00,,,0.01,weatherlink.com 1.10,2013-08-27 18:22:00,
2013-08-27 13:37:00,88.0,72.0,30.06,West,259,0.0,4.0,59,0.00,,,0.01,weatherlink.com 1.10,2013-08-27 18:37:00,
2013-08-27 13:52:00,88.0,71.0,30.06,SSW,206,3.0,7.0,58,0.00,,,0.01,weatherlink.com 1.10,2013-08-27 18:52:00,
2013-08-27 14:07:00,88.2,72.0,30.05,SW,231,0.0,6.0,59,0.00,,,0.01,weatherlink.com 1.10,2013-08-27 19:07:00,
2013-08-27 14:22:00,88.7,72.0,30.05,WSW,245,3.0,4.0,58,0.00,,,0.01,weatherlink.com 1.10,2013-08-27 19:22:00,
2013-08-27 14:37:00,89.8,72.0,30.04,WSW,247,0.0,5.0,55,0.00,,,0.01,weatherlink.com 1.10,2013-08-27 19:37:00,
2013-08-27 14:52:00,91.5,72.0,30.03,SW,230,0.0,5.0,53,0.00,,,0.01,weatherlink.com 1.10,2013-08-27 19:52:00,
2013-08-27 15:07:00,91.0,72.0,30.02,WSW,238,1.0,5.0,53,0.00,,,0.01,weatherlink.com 1.10,2013-08-27 20:07:00,
2013-08-27 15:22:00,91.9,70.0,30.02,WSW,240,1.0,6.0,49,0.00,,,0.01,weatherlink.com 1.10,2013-08-27 20:22:00,
2013-08-27 15:37:00,93.1,71.0,30.02,SW,236,0.0,4.0,48,0.00,,,0.01,weatherlink.com 1.10,2013-08-27 20:37:00,
2013-08-27 15:52:00,92.5,70.0,30.01,NNE,24,0.0,5.0,48,0.00,,,0.01,weatherlink.com 1.10,2013-08-27 20:52:00,
2013-08-27 16:07:00,92.1,70.0,30.01,NNW,332,0.0,4.0,48,0.00,,,0.01,weatherlink.com 1.10,2013-08-27 21:07:00,
2013-08-27 16:52:00,92.2,70.0,30.00,NNW,348,3.0,6.0,49,0.00,,,0.01,weatherlink.com 1.10,2013-08-27 21:52:00,
2013-08-27 17:07:00,91.8,70.0,30.00,North,360,0.0,5.0,49,0.00,,,0.01,weatherlink.com 1.10,2013-08-27 22:07:00,
2013-08-27 17:22:00,92.4,70.0,30.00,North,355,2.0,5.0,48,0.00,,,0.01,weatherlink.com 1.10,2013-08-27 22:22:00,
2013-08-27 17:37:00,92.9,70.0,30.00,NNE,13,2.0,7.0,48,0.00,,,0.01,weatherlink.com 1.10,2013-08-27 22:37:00,
2013-08-27 17:52:00,91.9,70.0,29.99,NNW,342,3.0,8.0,49,0.00,,,0.01,weatherlink.com 1.10,2013-08-27 22:52:00,
2013-08-27 18:07:00,91.1,70.0,29.99,NNW,346,0.0,3.0,50,0.00,,,0.01,weatherlink.com 1.10,2013-08-27 23:07:00,
2013-08-27 18:22:00,91.0,69.0,29.98,NW,321,5.0,5.0,49,0.00,,,0.01,weatherlink.com 1.10,2013-08-27 23:22:00,
2013-08-27 18:37:00,90.7,69.0,29.98,North,355,0.0,2.0,49,0.00,,,0.01,weatherlink.com 1.10,2013-08-27 23:37:00,
2013-08-27 18:52:00,90.5,69.0,29.98,ENE,64,0.0,1.0,49,0.00,,,0.01,weatherlink.com 1.10,2013-08-27 23:52:00,
2013-08-27 19:08:00,90.2,70.0,29.98,ENE,64,0.0,0.0,52,0.00,,,0.01,weatherlink.com 1.10,2013-08-28 00:08:00,
2013-08-27 19:23:00,89.4,71.0,29.98,ENE,64,0.0,0.0,54,0.00,,,0.01,weatherlink.com 1.10,2013-08-28 00:23:00,
2013-08-27 19:38:00,88.2,71.0,29.98,ENE,64,0.0,0.0,57,0.00,,,0.01,weatherlink.com 1.10,2013-08-28 00:38:00,
2013-08-27 19:53:00,86.9,71.0,29.98,ENE,64,0.0,0.0,59,0.00,,,0.01,weatherlink.com 1.10,2013-08-28 00:53:00,
2013-08-27 20:08:00,85.3,71.0,29.98,ENE,64,0.0,0.0,62,0.00,,,0.01,weatherlink.com 1.10,2013-08-28 01:08:00,
2013-08-27 20:23:00,83.9,70.0,29.98,ENE,65,0.0,0.0,64,0.00,,,0.01,weatherlink.com 1.10,2013-08-28 01:23:00,
2013-08-27 20:38:00,82.8,70.0,29.98,ENE,64,0.0,0.0,65,0.00,,,0.01,weatherlink.com 1.10,2013-08-28 01:38:00,
2013-08-27 20:53:00,81.7,70.0,29.99,ENE,64,0.0,0.0,68,0.00,,,0.01,weatherlink.com 1.10,2013-08-28 01:53:00,
2013-08-27 21:08:00,81.0,70.0,29.99,ENE,64,0.0,0.0,70,0.00,,,0.01,weatherlink.com 1.10,2013-08-28 02:08:00,
2013-08-27 21:23:00,80.2,70.0,30.00,ENE,64,0.0,0.0,71,0.00,,,0.01,weatherlink.com 1.10,2013-08-28 02:23:00,
2013-08-27 21:38:00,79.6,70.0,30.00,ENE,64,0.0,0.0,73,0.00,,,0.01,weatherlink.com 1.10,2013-08-28 02:38:00,
2013-08-27 21:53:00,79.2,70.0,30.01,ENE,64,0.0,0.0,73,0.00,,,0.01,weatherlink.com 1.10,2013-08-28 02:53:00,
2013-08-27 22:08:00,79.1,70.0,30.00,ENE,64,0.0,0.0,74,0.00,,,0.01,weatherlink.com 1.10,2013-08-28 03:08:00,
2013-08-27 22:23:00,79.2,71.0,30.00,ENE,64,0.0,0.0,75,0.00,,,0.01,weatherlink.com 1.10,2013-08-28 03:23:00,
2013-08-27 22:38:00,79.2,71.0,30.00,ENE,64,0.0,0.0,75,0.00,,,0.01,weatherlink.com 1.10,2013-08-28 03:38:00,
2013-08-27 22:53:00,79.0,70.0,30.00,ENE,64,0.0,0.0,75,0.00,,,0.01,weatherlink.com 1.10,2013-08-28 03:53:00,
2013-08-27 23:08:00,78.6,70.0,30.00,ENE,64,0.0,0.0,75,0.00,,,0.01,weatherlink.com 1.10,2013-08-28 04:08:00,
2013-08-27 23:23:00,78.4,70.0,30.00,ENE,64,0.0,0.0,76,0.00,,,0.01,weatherlink.com 1.10,2013-08-28 04:23:00,
2013-08-27 23:38:00,78.0,70.0,30.00,ESE,103,0.0,0.0,77,0.00,,,0.01,weatherlink.com 1.10,2013-08-28 04:38:00,
2013-08-27 23:53:00,77.6,70.0,29.99,SE,140,0.0,0.0,77,0.00,,,0.01,weatherlink.com 1.10,2013-08-28 04:53:00,